This is the latest recevied weather packets stored in our database for station/object N3WGC-14. If no packets are shown the sender has not sent any weather packets the latest 10 day(s).
| Time | Temp. | Humidity | Pressure | Rain* | Wind** | Luminosity | Snow |
|---|---|---|---|---|---|---|---|
| 1777480777 | 15° C | 69% | 1013.7 hPa | 0 mm | - | - | - |
| 1777480477 | 15° C | 71% | 1013.8 hPa | 0 mm | - | - | - |
| 1777480177 | 15° C | 69% | 1013.7 hPa | 0 mm | - | - | - |
| 1777479877 | 15° C | 71% | 1013.7 hPa | 0 mm | - | - | - |
| 1777479577 | 15° C | 70% | 1013.8 hPa | 0 mm | - | - | - |
| 1777479276 | 14.44° C | 69% | 1014 hPa | 0 mm | - | - | - |
| 1777478976 | 14.44° C | 69% | 1014.1 hPa | 0 mm | - | - | - |
| 1777478676 | 14.44° C | 69% | 1014.2 hPa | 0 mm | - | - | - |
| 1777478376 | 14.44° C | 68% | 1014.4 hPa | 0 mm | - | - | - |
| 1777478076 | 14.44° C | 67% | 1014.5 hPa | 0 mm | - | - | - |
| 1777477776 | 14.44° C | 68% | 1014.7 hPa | 0 mm | - | - | - |
| 1777477475 | 14.44° C | 67% | 1014.8 hPa | 0 mm | - | - | - |
| 1777477175 | 14.44° C | 67% | 1014.8 hPa | 0 mm | - | - | - |
| 1777476875 | 14.44° C | 67% | 1014.8 hPa | 0 mm | - | - | - |
| 1777476575 | 14.44° C | 67% | 1014.8 hPa | 0 mm | - | - | - |
| 1777476275 | 14.44° C | 66% | 1014.9 hPa | 0 mm | - | - | - |
| 1777475975 | 15° C | 69% | 1014.9 hPa | 0 mm | - | - | - |
| 1777475675 | 14.44° C | 69% | 1015 hPa | 0 mm | - | - | - |
| 1777475374 | 14.44° C | 69% | 1014.9 hPa | 0 mm | - | - | - |
| 1777475074 | 14.44° C | 70% | 1015 hPa | 0 mm | - | - | - |
| 1777474774 | 14.44° C | 70% | 1015 hPa | 0 mm | - | - | - |
| 1777474474 | 14.44° C | 69% | 1015.2 hPa | 0 mm | - | - | - |
| 1777474174 | 14.44° C | 69% | 1015.3 hPa | 0 mm | - | - | - |
| 1777473874 | 14.44° C | 68% | 1015.3 hPa | 0 mm | - | - | - |
| 1777473573 | 13.89° C | 69% | 1015.2 hPa | 0 mm | - | - | - |
* Rain latest hour (hover to see other rain measurements)
** Current wind speed in m/s (hover to see current wind gust speed)